Orbital Elements at Epoch 2459000.5 (2020-May-31.0) TDB
Reference: JPL 25 (heliocentric ecliptic J2000)
Element | Value | Uncertainty (1-sigma) | Units |
e | .1818183411347644 | 4.6891e-08 | |
a | 3.246053126567123 | 1.9346e-08 | au |
q | 2.655861131859373 | 1.5304e-07 | au |
i | 2.018916170273448 | 4.7521e-06 | deg |
node | 132.8736048604611 | 0.00015593 | deg |
peri | 184.736560152633 | 0.00015684 | deg |
M | 150.1199508214669 | 1.8501e-05 | deg |
tp | 2458109.725502805503 (2017-Dec-22.22550281) | 0.00010904 | TDB |
period | 2136.150573159943 5.85 | 1.9097e-05 5.228e-08 | d yr |
n | .1685274458286257 | 1.5066e-09 | deg/d |
Q | 3.836245121274872 | 2.2864e-08 | au |
|
| | Orbit Determination Parameters
Additional Information
|